status,avgMeasuredTime,avgSpeed,extID,medianMeasuredTime,TIMESTAMP,vehicleCount,_id,REPORT_ID
OK,51,57,816,51,2014-08-01T07:55:00,0,20746540,195817
OK,51,57,816,51,2014-08-01T08:00:00,0,20746871,195817
OK,51,57,816,51,2014-08-01T08:05:00,0,20747320,195817
OK,51,57,816,51,2014-08-01T08:10:00,0,20747693,195817
OK,51,57,816,51,2014-08-01T08:15:00,0,20748142,195817
OK,51,57,816,51,2014-08-01T08:20:00,0,20748591,195817
OK,51,57,816,51,2014-08-01T08:25:00,0,20749040,195817
OK,62,47,816,62,2014-08-01T08:30:00,1,20749489,195817
OK,62,47,816,62,2014-08-01T08:35:00,1,20749938,195817
OK,59,49,816,59,2014-08-01T08:40:00,1,20750387,195817
OK,59,49,816,59,2014-08-01T08:45:00,1,20750836,195817
OK,59,49,816,59,2014-08-01T08:50:00,0,20751285,195817
OK,59,49,816,59,2014-08-01T08:55:00,0,20751734,195817
OK,59,49,816,59,2014-08-01T09:00:00,0,20752183,195817
OK,59,49,816,59,2014-08-01T09:05:00,0,20752632,195817
OK,68,42,816,68,2014-08-01T09:10:00,3,20753081,195817
OK,68,42,816,68,2014-08-01T09:15:00,3,20753530,195817
OK,57,51,816,57,2014-08-01T09:20:00,0,20753979,195817
OK,87,33,816,87,2014-08-01T09:25:00,1,20754428,195817
OK,87,33,816,87,2014-08-01T09:30:00,0,20754877,195817
OK,87,33,816,87,2014-08-01T09:35:00,0,20755326,195817
OK,87,33,816,87,2014-08-01T09:40:00,0,20755775,195817
OK,47,62,816,47,2014-08-01T09:45:00,1,20756224,195817
OK,47,62,816,47,2014-08-01T09:50:00,1,20756673,195817
OK,64,45,816,64,2014-08-01T09:55:00,1,20757122,195817
OK,104,28,816,104,2014-08-01T10:00:00,1,20757571,195817
OK,104,28,816,104,2014-08-01T10:05:00,1,20758020,195817
OK,64,45,816,64,2014-08-01T10:10:00,1,20758469,195817
OK,64,45,816,64,2014-08-01T10:15:00,1,20758918,195817
OK,109,26,816,109,2014-08-01T10:20:00,1,20759367,195817
OK,109,26,816,109,2014-08-01T10:25:00,1,20759816,195817
OK,109,26,816,109,2014-08-01T10:30:00,0,20760265,195817
OK,109,26,816,109,2014-08-01T10:35:00,0,20760714,195817
OK,74,39,816,74,2014-08-01T10:40:00,3,20761163,195817
OK,74,39,816,74,2014-08-01T10:45:00,4,20761612,195817
OK,92,31,816,92,2014-08-01T10:50:00,1,20762061,195817
OK,92,31,816,92,2014-08-01T10:55:00,0,20762510,195817
OK,92,31,816,92,2014-08-01T11:00:00,0,20762959,195817
OK,105,27,816,105,2014-08-01T11:05:00,1,20763408,195817
OK,105,27,816,105,2014-08-01T11:10:00,1,20763857,195817
OK,105,27,816,105,2014-08-01T11:15:00,0,20764305,195817
OK,105,27,816,105,2014-08-01T11:20:00,0,20764754,195817
OK,105,27,816,105,2014-08-01T11:25:00,0,20765203,195817
OK,100,29,816,100,2014-08-01T11:30:00,2,20765652,195817
OK,100,29,816,100,2014-08-01T11:35:00,2,20766101,195817
OK,100,29,816,100,2014-08-01T11:40:00,0,20766550,195817
OK,83,35,816,83,2014-08-01T11:45:00,2,20766999,195817
OK,83,35,816,83,2014-08-01T11:50:00,2,20767448,195817
OK,83,35,816,83,2014-08-01T11:55:00,0,20767897,195817
OK,83,35,816,83,2014-08-01T12:00:00,0,20768346,195817
OK,83,35,816,83,2014-08-01T12:05:00,0,20768795,195817
OK,57,51,816,57,2014-08-01T12:10:00,1,20769244,195817
OK,57,51,816,57,2014-08-01T12:15:00,1,20769693,195817
OK,173,16,816,173,2014-08-01T12:20:00,1,20770142,195817
OK,173,16,816,173,2014-08-01T12:25:00,1,20770591,195817
OK,79,37,816,79,2014-08-01T12:30:00,1,20771040,195817
OK,79,37,816,79,2014-08-01T12:35:00,1,20771489,195817
OK,79,37,816,79,2014-08-01T12:40:00,0,20771938,195817
OK,101,28,816,101,2014-08-01T12:45:00,1,20772387,195817
OK,106,27,816,106,2014-08-01T12:50:00,1,20772836,195817
OK,81,36,816,81,2014-08-01T12:55:00,1,20773285,195817
OK,81,36,816,81,2014-08-01T13:00:00,1,20773734,195817
OK,81,36,816,81,2014-08-01T13:05:00,0,20774183,195817
OK,81,36,816,81,2014-08-01T13:10:00,0,20774632,195817
OK,81,36,816,81,2014-08-01T13:15:00,0,20775081,195817
OK,81,36,816,81,2014-08-01T13:20:00,0,20775530,195817
OK,81,36,816,81,2014-08-01T13:25:00,0,20775979,195817
OK,81,36,816,81,2014-08-01T13:30:00,0,20776428,195817
OK,81,36,816,81,2014-08-01T13:35:00,0,20776877,195817
OK,81,36,816,81,2014-08-01T13:40:00,0,20777326,195817
OK,81,36,816,81,2014-08-01T13:45:00,0,20777775,195817
OK,81,36,816,81,2014-08-01T13:50:00,0,20778224,195817
OK,81,36,816,81,2014-08-01T13:55:00,0,20778673,195817
OK,81,36,816,81,2014-08-01T14:00:00,0,20779122,195817
OK,81,36,816,81,2014-08-01T14:05:00,0,20779571,195817
OK,81,36,816,81,2014-08-01T14:10:00,0,20780020,195817
OK,81,36,816,81,2014-08-01T14:15:00,0,20780469,195817
OK,81,36,816,81,2014-08-01T14:20:00,0,20780918,195817
OK,81,36,816,81,2014-08-01T14:25:00,0,20781367,195817
OK,81,36,816,81,2014-08-01T14:30:00,0,20781816,195817
OK,81,36,816,81,2014-08-01T14:35:00,0,20782265,195817
OK,81,36,816,81,2014-08-01T14:40:00,0,20782714,195817
OK,81,36,816,81,2014-08-01T14:45:00,0,20783163,195817
OK,81,36,816,81,2014-08-01T14:50:00,0,20783612,195817
OK,77,37,816,77,2014-08-01T14:55:00,1,20784061,195817
OK,77,37,816,77,2014-08-01T15:00:00,1,20784510,195817
OK,77,37,816,77,2014-08-01T15:05:00,0,20784959,195817
OK,64,45,816,64,2014-08-01T15:10:00,1,20785408,195817
OK,64,45,816,64,2014-08-01T15:15:00,1,20785857,195817
OK,48,60,816,48,2014-08-01T15:20:00,1,20786306,195817
OK,48,60,816,48,2014-08-01T15:25:00,1,20786755,195817
OK,48,60,816,48,2014-08-01T15:30:00,0,20787204,195817
OK,48,60,816,48,2014-08-01T15:35:00,0,20787653,195817
OK,71,41,816,71,2014-08-01T15:40:00,1,20788102,195817
OK,71,41,816,71,2014-08-01T15:45:00,1,20788551,195817
OK,71,41,816,71,2014-08-01T15:50:00,0,20789000,195817
OK,71,41,816,71,2014-08-01T15:55:00,0,20789449,195817
OK,71,41,816,71,2014-08-01T16:00:00,0,20789898,195817
OK,71,41,816,71,2014-08-01T16:05:00,0,20790347,195817
OK,71,41,816,71,2014-08-01T16:10:00,0,20790796,195817
OK,71,41,816,71,2014-08-01T16:15:00,0,20791245,195817
OK,71,41,816,71,2014-08-01T16:20:00,0,20791694,195817
OK,71,41,816,71,2014-08-01T16:25:00,0,20792143,195817
OK,71,41,816,71,2014-08-01T16:30:00,0,20792592,195817
OK,71,41,816,71,2014-08-01T16:35:00,0,20793041,195817
OK,71,41,816,71,2014-08-01T16:40:00,0,20793490,195817
OK,71,41,816,71,2014-08-01T16:45:00,0,20793939,195817
OK,71,41,816,71,2014-08-01T16:50:00,0,20794388,195817
OK,71,41,816,71,2014-08-01T16:55:00,0,20794837,195817
OK,71,41,816,71,2014-08-01T17:00:00,0,20795286,195817
OK,71,41,816,71,2014-08-01T17:05:00,0,20795735,195817
OK,71,41,816,71,2014-08-01T17:10:00,0,20796184,195817
OK,71,41,816,71,2014-08-01T17:15:00,0,20796633,195817
OK,71,41,816,71,2014-08-01T17:20:00,0,20797082,195817
OK,71,41,816,71,2014-08-01T17:25:00,0,20797531,195817
OK,71,41,816,71,2014-08-01T17:30:00,0,20797980,195817
OK,71,41,816,71,2014-08-01T17:35:00,0,20798429,195817
OK,71,41,816,71,2014-08-01T17:40:00,0,20798878,195817
OK,71,41,816,71,2014-08-01T17:45:00,0,20799327,195817
OK,71,41,816,71,2014-08-01T17:50:00,0,20799776,195817
OK,71,41,816,71,2014-08-01T17:55:00,0,20800225,195817
OK,71,41,816,71,2014-08-01T18:00:00,0,20800674,195817
OK,71,41,816,71,2014-08-01T18:05:00,0,20801123,195817
OK,71,41,816,71,2014-08-01T18:10:00,0,20801572,195817
OK,71,41,816,71,2014-08-01T18:15:00,0,20802021,195817
OK,71,41,816,71,2014-08-01T18:20:00,0,20802470,195817
OK,71,41,816,71,2014-08-01T18:25:00,0,20802919,195817
OK,71,41,816,71,2014-08-01T18:30:00,0,20803368,195817
OK,71,41,816,71,2014-08-01T18:35:00,0,20803817,195817
OK,71,41,816,71,2014-08-01T18:40:00,0,20804266,195817
OK,71,41,816,71,2014-08-01T18:45:00,0,20804715,195817
OK,71,41,816,71,2014-08-01T18:50:00,0,20805164,195817
OK,71,41,816,71,2014-08-01T18:55:00,0,20805613,195817
OK,71,41,816,71,2014-08-01T19:00:00,0,20806062,195817
OK,71,41,816,71,2014-08-01T19:05:00,0,20806511,195817
OK,71,41,816,71,2014-08-01T19:10:00,0,20806960,195817
OK,71,41,816,71,2014-08-01T19:15:00,0,20807409,195817
OK,71,41,816,71,2014-08-01T19:20:00,0,20807858,195817
OK,71,41,816,71,2014-08-01T19:25:00,0,20808307,195817
OK,71,41,816,71,2014-08-01T19:30:00,0,20808756,195817
OK,71,41,816,71,2014-08-01T19:35:00,0,20809205,195817
OK,71,41,816,71,2014-08-01T19:40:00,0,20809654,195817
OK,71,41,816,71,2014-08-01T19:45:00,0,20810103,195817
OK,71,41,816,71,2014-08-01T19:50:00,0,20810552,195817
OK,71,41,816,71,2014-08-01T19:55:00,0,20811001,195817
OK,64,45,816,64,2014-08-01T22:00:00,0,20816730,195817
OK,64,45,816,64,2014-08-01T22:05:00,0,20817179,195817
OK,64,45,816,64,2014-08-02T00:00:00,0,20823169,195817
OK,64,45,816,64,2014-08-02T00:05:00,0,20823618,195817
OK,64,45,816,64,2014-08-02T00:10:00,0,20824067,195817
OK,64,45,816,64,2014-08-02T00:15:00,0,20824516,195817
OK,64,45,816,64,2014-08-02T00:20:00,0,20824965,195817
OK,64,45,816,64,2014-08-02T00:25:00,0,20825414,195817
OK,64,45,816,64,2014-08-02T00:30:00,0,20825863,195817
OK,64,45,816,64,2014-08-02T00:35:00,0,20826312,195817
OK,64,45,816,64,2014-08-02T00:40:00,0,20826761,195817
OK,64,45,816,64,2014-08-02T00:45:00,0,20827210,195817
OK,64,45,816,64,2014-08-02T00:50:00,0,20827659,195817
OK,64,45,816,64,2014-08-02T00:55:00,0,20828108,195817
OK,64,45,816,64,2014-08-02T01:00:00,0,20828557,195817
OK,64,45,816,64,2014-08-02T01:05:00,0,20829006,195817
OK,64,45,816,64,2014-08-02T01:10:00,0,20829455,195817
OK,64,45,816,64,2014-08-02T01:15:00,0,20829904,195817
OK,64,45,816,64,2014-08-02T01:20:00,0,20830353,195817
OK,64,45,816,64,2014-08-02T01:25:00,0,20830802,195817
OK,64,45,816,64,2014-08-02T01:30:00,0,20831251,195817
OK,64,45,816,64,2014-08-02T01:35:00,0,20831700,195817
OK,64,45,816,64,2014-08-02T01:40:00,0,20832149,195817
OK,64,45,816,64,2014-08-02T01:45:00,0,20832598,195817
OK,1166,2,816,1166,2014-08-02T01:50:00,2,20833047,195817
OK,1166,2,816,1166,2014-08-02T01:55:00,0,20833496,195817
OK,1166,2,816,1166,2014-08-02T02:00:00,0,20833945,195817
OK,1166,2,816,1166,2014-08-02T02:05:00,0,20834394,195817
OK,1166,2,816,1166,2014-08-02T02:10:00,0,20834843,195817
OK,1166,2,816,1166,2014-08-02T02:15:00,0,20835292,195817
OK,1166,2,816,1166,2014-08-02T02:20:00,0,20835741,195817
OK,1166,2,816,1166,2014-08-02T02:25:00,0,20836190,195817
OK,1166,2,816,1166,2014-08-02T02:30:00,0,20836639,195817
OK,1166,2,816,1166,2014-08-02T02:35:00,0,20837088,195817
OK,1166,2,816,1166,2014-08-02T02:40:00,0,20837537,195817
OK,1166,2,816,1166,2014-08-02T02:45:00,0,20837986,195817
OK,1166,2,816,1166,2014-08-02T02:50:00,0,20838435,195817
OK,1166,2,816,1166,2014-08-02T02:55:00,0,20838884,195817
OK,1166,2,816,1166,2014-08-02T03:00:00,0,20839333,195817
OK,1166,2,816,1166,2014-08-02T03:05:00,0,20839782,195817
OK,1166,2,816,1166,2014-08-02T03:10:00,0,20840231,195817
OK,1166,2,816,1166,2014-08-02T03:15:00,0,20840680,195817
OK,1166,2,816,1166,2014-08-02T03:20:00,0,20841129,195817
OK,1166,2,816,1166,2014-08-02T03:25:00,0,20841578,195817
OK,1166,2,816,1166,2014-08-02T03:30:00,0,20842027,195817
OK,1166,2,816,1166,2014-08-02T03:35:00,0,20842476,195817
OK,1166,2,816,1166,2014-08-02T03:40:00,0,20842925,195817
OK,1166,2,816,1166,2014-08-02T03:45:00,0,20843374,195817
OK,1166,2,816,1166,2014-08-02T03:50:00,0,20843823,195817
OK,1166,2,816,1166,2014-08-02T03:55:00,0,20844272,195817
OK,1166,2,816,1166,2014-08-02T04:20:00,0,20845718,195817
OK,1166,2,816,1166,2014-08-02T04:35:00,0,20846641,195817
OK,1166,2,816,1166,2014-08-02T04:45:00,0,20847283,195817
OK,1166,2,816,1166,2014-08-02T04:50:00,0,20847649,195817
OK,1166,2,816,1166,2014-08-02T05:40:00,0,20850510,195817
OK,1166,2,816,1166,2014-08-02T05:50:00,0,20851169,195817
OK,1166,2,816,1166,2014-08-02T06:00:00,0,20851726,195817
OK,1166,2,816,1166,2014-08-02T06:05:00,0,20852175,195817
OK,1166,2,816,1166,2014-08-02T06:10:00,0,20852624,195817
OK,1166,2,816,1166,2014-08-02T06:15:00,0,20853073,195817
OK,1166,2,816,1166,2014-08-02T06:20:00,0,20853522,195817
OK,1166,2,816,1166,2014-08-02T06:25:00,0,20853971,195817
OK,1166,2,816,1166,2014-08-02T06:30:00,0,20854420,195817
OK,1166,2,816,1166,2014-08-02T06:35:00,0,20854869,195817
OK,1166,2,816,1166,2014-08-02T06:40:00,0,20855318,195817
OK,1166,2,816,1166,2014-08-02T06:45:00,0,20855767,195817
OK,1166,2,816,1166,2014-08-02T06:50:00,0,20856216,195817
OK,1166,2,816,1166,2014-08-02T06:55:00,0,20856665,195817
OK,1166,2,816,1166,2014-08-02T07:00:00,0,20857114,195817
OK,1166,2,816,1166,2014-08-02T07:05:00,0,20857563,195817
OK,1166,2,816,1166,2014-08-02T07:10:00,0,20858012,195817
OK,1166,2,816,1166,2014-08-02T07:15:00,0,20858461,195817
OK,1166,2,816,1166,2014-08-02T07:20:00,0,20858910,195817
OK,1166,2,816,1166,2014-08-02T07:25:00,0,20859359,195817
OK,1166,2,816,1166,2014-08-02T07:30:00,0,20859808,195817
OK,1166,2,816,1166,2014-08-02T07:35:00,0,20860257,195817
OK,1166,2,816,1166,2014-08-02T07:40:00,0,20860706,195817
OK,1166,2,816,1166,2014-08-02T07:45:00,0,20861155,195817
OK,1166,2,816,1166,2014-08-02T07:50:00,0,20861604,195817
OK,1166,2,816,1166,2014-08-02T07:55:00,0,20862053,195817
OK,1166,2,816,1166,2014-08-02T08:00:00,0,20862502,195817
OK,1166,2,816,1166,2014-08-02T08:05:00,0,20862951,195817
OK,1166,2,816,1166,2014-08-02T08:10:00,0,20863400,195817
OK,1166,2,816,1166,2014-08-02T08:15:00,0,20863849,195817
OK,1166,2,816,1166,2014-08-02T08:20:00,0,20864298,195817
OK,1166,2,816,1166,2014-08-02T08:25:00,0,20864747,195817
OK,1166,2,816,1166,2014-08-02T08:30:00,0,20865196,195817
OK,1166,2,816,1166,2014-08-02T08:35:00,0,20865645,195817
OK,1166,2,816,1166,2014-08-02T08:40:00,0,20866094,195817
OK,1166,2,816,1166,2014-08-02T08:45:00,0,20866543,195817
OK,1166,2,816,1166,2014-08-02T08:50:00,0,20866992,195817
OK,1166,2,816,1166,2014-08-02T08:55:00,0,20867441,195817
OK,1166,2,816,1166,2014-08-02T09:00:00,0,20867890,195817
OK,541,5,816,541,2014-08-02T09:05:00,1,20868339,195817
OK,1166,2,816,1166,2014-08-02T09:10:00,0,20868788,195817
OK,1166,2,816,1166,2014-08-02T09:15:00,0,20869237,195817
OK,1166,2,816,1166,2014-08-02T09:20:00,0,20869686,195817
OK,1166,2,816,1166,2014-08-02T09:25:00,0,20870135,195817
OK,1166,2,816,1166,2014-08-02T09:30:00,0,20870584,195817
OK,1166,2,816,1166,2014-08-02T09:35:00,0,20871033,195817
OK,1166,2,816,1166,2014-08-02T09:40:00,0,20871482,195817
OK,1166,2,816,1166,2014-08-02T09:45:00,0,20871931,195817
OK,1166,2,816,1166,2014-08-02T09:50:00,0,20872380,195817
OK,1166,2,816,1166,2014-08-02T09:55:00,0,20872829,195817
OK,1166,2,816,1166,2014-08-02T10:00:00,0,20873278,195817
OK,1166,2,816,1166,2014-08-02T10:05:00,0,20873727,195817
OK,1166,2,816,1166,2014-08-02T10:10:00,0,20874176,195817
OK,1166,2,816,1166,2014-08-02T10:15:00,0,20874625,195817
OK,1166,2,816,1166,2014-08-02T10:20:00,0,20875074,195817
OK,1166,2,816,1166,2014-08-02T10:25:00,0,20875523,195817
OK,1166,2,816,1166,2014-08-02T10:30:00,0,20875972,195817
OK,1166,2,816,1166,2014-08-02T10:35:00,0,20876421,195817
OK,1166,2,816,1166,2014-08-02T10:40:00,0,20876870,195817
OK,1166,2,816,1166,2014-08-02T10:45:00,0,20877319,195817
OK,1166,2,816,1166,2014-08-02T10:50:00,0,20877768,195817
OK,904,3,816,904,2014-08-02T10:55:00,2,20878217,195817
OK,861,3,816,861,2014-08-02T11:00:00,0,20878666,195817
OK,2041,1,816,2041,2014-08-02T11:05:00,2,20879115,195817
OK,861,3,816,861,2014-08-02T11:10:00,0,20879564,195817
OK,861,3,816,861,2014-08-02T11:15:00,0,20880013,195817
OK,861,3,816,861,2014-08-02T11:20:00,0,20880462,195817
OK,861,3,816,861,2014-08-02T11:25:00,0,20880911,195817
OK,59,49,816,59,2014-08-02T11:30:00,3,20881360,195817
OK,59,49,816,59,2014-08-02T11:35:00,2,20881809,195817
OK,59,49,816,59,2014-08-02T11:40:00,0,20882258,195817
OK,59,49,816,59,2014-08-02T11:45:00,0,20882707,195817
OK,58,50,816,58,2014-08-02T11:50:00,1,20883156,195817
OK,58,50,816,58,2014-08-02T11:55:00,0,20883605,195817
OK,58,50,816,58,2014-08-02T12:00:00,0,20884054,195817
OK,58,50,816,58,2014-08-02T12:05:00,0,20884503,195817
OK,48,60,816,48,2014-08-02T12:10:00,1,20884952,195817
OK,48,60,816,48,2014-08-02T12:15:00,1,20885401,195817
OK,48,60,816,48,2014-08-02T12:20:00,0,20885850,195817
OK,48,60,816,48,2014-08-02T12:25:00,0,20886299,195817
OK,48,60,816,48,2014-08-02T12:30:00,0,20886748,195817
OK,48,60,816,48,2014-08-02T12:35:00,0,20887197,195817
OK,64,45,816,64,2014-08-02T12:40:00,2,20887646,195817
OK,64,45,816,64,2014-08-02T12:45:00,2,20888095,195817
OK,56,52,816,56,2014-08-02T12:50:00,0,20888544,195817
OK,56,52,816,56,2014-08-02T12:55:00,0,20888993,195817
OK,56,52,816,56,2014-08-02T13:00:00,0,20889442,195817
OK,56,52,816,56,2014-08-02T13:05:00,0,20889891,195817
OK,56,52,816,56,2014-08-02T13:10:00,0,20890340,195817
OK,56,52,816,56,2014-08-02T13:15:00,0,20890789,195817
OK,56,52,816,56,2014-08-02T13:20:00,0,20891238,195817
OK,56,52,816,56,2014-08-02T13:25:00,0,20891687,195817
OK,56,52,816,56,2014-08-02T13:30:00,0,20892136,195817
OK,56,52,816,56,2014-08-02T13:35:00,0,20892585,195817
OK,56,52,816,56,2014-08-02T13:40:00,0,20893034,195817
OK,56,52,816,56,2014-08-02T13:45:00,0,20893483,195817
OK,56,52,816,56,2014-08-02T13:50:00,0,20893932,195817
OK,57,51,816,57,2014-08-02T13:55:00,1,20894381,195817
OK,57,51,816,57,2014-08-02T14:00:00,1,20894830,195817
OK,57,51,816,57,2014-08-02T14:05:00,0,20895279,195817
OK,57,51,816,57,2014-08-02T14:10:00,0,20895728,195817
OK,57,51,816,57,2014-08-02T14:15:00,0,20896177,195817
OK,57,51,816,57,2014-08-02T14:20:00,0,20896626,195817
OK,57,51,816,57,2014-08-02T14:25:00,0,20897075,195817
OK,57,51,816,57,2014-08-02T14:30:00,0,20897524,195817
OK,57,51,816,57,2014-08-02T14:35:00,0,20897973,195817
OK,57,51,816,57,2014-08-02T14:40:00,0,20898422,195817
OK,57,51,816,57,2014-08-02T14:45:00,0,20898871,195817
OK,57,51,816,57,2014-08-02T14:50:00,0,20899320,195817
OK,57,51,816,57,2014-08-02T14:55:00,0,20899769,195817
OK,57,51,816,57,2014-08-02T15:00:00,0,20900218,195817
OK,57,51,816,57,2014-08-02T15:05:00,0,20900667,195817
OK,57,51,816,57,2014-08-02T15:10:00,0,20901116,195817
OK,57,51,816,57,2014-08-02T15:15:00,0,20901565,195817
OK,57,51,816,57,2014-08-02T15:20:00,0,20902014,195817
OK,57,51,816,57,2014-08-02T15:25:00,0,20902463,195817
OK,57,51,816,57,2014-08-02T15:30:00,0,20902912,195817
OK,57,51,816,57,2014-08-02T15:35:00,0,20903361,195817
OK,57,51,816,57,2014-08-02T15:40:00,0,20903810,195817
OK,57,51,816,57,2014-08-02T15:45:00,0,20904259,195817
OK,57,51,816,57,2014-08-02T15:50:00,0,20904708,195817
OK,57,51,816,57,2014-08-02T15:55:00,0,20905157,195817
OK,57,51,816,57,2014-08-02T16:00:00,0,20905606,195817
OK,57,51,816,57,2014-08-02T16:05:00,0,20906055,195817
OK,57,51,816,57,2014-08-02T16:10:00,0,20906504,195817
OK,57,51,816,57,2014-08-02T16:15:00,0,20906953,195817
OK,57,51,816,57,2014-08-02T16:20:00,0,20907402,195817
OK,57,51,816,57,2014-08-02T16:25:00,0,20907851,195817
OK,57,51,816,57,2014-08-02T16:30:00,0,20908300,195817
OK,57,51,816,57,2014-08-02T16:35:00,0,20908749,195817
OK,57,51,816,57,2014-08-02T16:40:00,0,20909198,195817
OK,57,51,816,57,2014-08-02T16:45:00,0,20909647,195817
OK,68,42,816,68,2014-08-02T16:50:00,1,20910096,195817
OK,68,42,816,68,2014-08-02T16:55:00,1,20910545,195817
OK,68,42,816,68,2014-08-02T17:00:00,0,20910994,195817
OK,68,42,816,68,2014-08-02T17:05:00,0,20911443,195817
OK,68,42,816,68,2014-08-02T17:10:00,0,20911892,195817
OK,68,42,816,68,2014-08-02T17:15:00,0,20912341,195817
OK,68,42,816,68,2014-08-02T17:20:00,0,20912790,195817
OK,68,42,816,68,2014-08-02T17:25:00,0,20913239,195817
OK,68,42,816,68,2014-08-02T17:30:00,0,20913688,195817
OK,68,42,816,68,2014-08-02T17:35:00,0,20914137,195817
OK,68,42,816,68,2014-08-02T17:40:00,0,20914586,195817
OK,178,16,816,178,2014-08-02T17:45:00,1,20915035,195817
OK,178,16,816,178,2014-08-02T17:50:00,1,20915484,195817
OK,178,16,816,178,2014-08-02T17:55:00,0,20915933,195817
OK,178,16,816,178,2014-08-02T18:00:00,0,20916382,195817
OK,178,16,816,178,2014-08-02T18:05:00,0,20916831,195817
OK,45,64,816,45,2014-08-02T18:10:00,1,20917280,195817
OK,45,64,816,45,2014-08-02T18:15:00,1,20917729,195817
OK,45,64,816,45,2014-08-02T18:20:00,0,20918178,195817
OK,45,64,816,45,2014-08-02T18:25:00,0,20918627,195817
OK,45,64,816,45,2014-08-02T18:30:00,0,20919076,195817
OK,45,64,816,45,2014-08-02T18:35:00,0,20919525,195817
OK,45,64,816,45,2014-08-02T18:40:00,0,20919974,195817
OK,45,64,816,45,2014-08-02T18:45:00,0,20920423,195817
OK,53,55,816,53,2014-08-02T18:50:00,1,20920872,195817
OK,53,55,816,53,2014-08-02T18:55:00,1,20921321,195817
OK,53,55,816,53,2014-08-02T19:00:00,0,20921770,195817
OK,53,55,816,53,2014-08-02T19:05:00,0,20922219,195817
OK,53,55,816,53,2014-08-02T19:10:00,0,20922668,195817
OK,53,55,816,53,2014-08-02T19:15:00,0,20923117,195817
OK,53,55,816,53,2014-08-02T19:20:00,0,20923566,195817
OK,53,55,816,53,2014-08-02T19:25:00,0,20924015,195817
OK,53,55,816,53,2014-08-02T19:30:00,0,20924464,195817
OK,53,55,816,53,2014-08-02T19:35:00,0,20924913,195817
OK,53,55,816,53,2014-08-02T19:40:00,0,20925362,195817
OK,53,55,816,53,2014-08-02T19:45:00,0,20925811,195817
OK,53,55,816,53,2014-08-02T19:50:00,0,20926260,195817
OK,53,55,816,53,2014-08-02T19:55:00,0,20926709,195817
OK,53,55,816,53,2014-08-02T20:00:00,0,20927158,195817
OK,53,55,816,53,2014-08-02T20:05:00,0,20927607,195817
OK,53,55,816,53,2014-08-02T20:10:00,0,20928056,195817
OK,53,55,816,53,2014-08-02T20:15:00,0,20928505,195817
OK,53,55,816,53,2014-08-02T20:20:00,0,20928954,195817
OK,53,55,816,53,2014-08-02T20:25:00,0,20929403,195817
OK,53,55,816,53,2014-08-02T20:30:00,0,20929852,195817
OK,53,55,816,53,2014-08-02T20:35:00,0,20930301,195817
OK,53,55,816,53,2014-08-02T20:40:00,0,20930750,195817
OK,53,55,816,53,2014-08-02T20:45:00,0,20931199,195817
OK,53,55,816,53,2014-08-02T20:50:00,0,20931648,195817
OK,53,55,816,53,2014-08-02T20:55:00,0,20932097,195817
OK,53,55,816,53,2014-08-02T21:00:00,0,20932546,195817
OK,53,55,816,53,2014-08-02T21:05:00,0,20932995,195817
OK,53,55,816,53,2014-08-02T21:10:00,0,20933444,195817
OK,53,55,816,53,2014-08-02T21:15:00,0,20933893,195817
OK,53,55,816,53,2014-08-02T21:20:00,0,20934342,195817
OK,53,55,816,53,2014-08-02T21:25:00,0,20934791,195817
OK,53,55,816,53,2014-08-02T21:30:00,0,20935240,195817
OK,53,55,816,53,2014-08-02T21:35:00,0,20935689,195817
OK,53,55,816,53,2014-08-02T21:40:00,0,20936138,195817
OK,53,55,816,53,2014-08-02T21:45:00,0,20936587,195817
OK,53,55,816,53,2014-08-02T21:50:00,0,20937036,195817
OK,53,55,816,53,2014-08-02T21:55:00,0,20937485,195817
OK,53,55,816,53,2014-08-02T22:00:00,0,20937934,195817
OK,53,55,816,53,2014-08-02T22:05:00,0,20938383,195817
OK,53,55,816,53,2014-08-02T22:10:00,0,20938832,195817
OK,53,55,816,53,2014-08-02T22:15:00,0,20939281,195817
OK,53,55,816,53,2014-08-02T22:20:00,0,20939730,195817
OK,53,55,816,53,2014-08-02T22:25:00,0,20940179,195817
OK,53,55,816,53,2014-08-02T22:30:00,0,20940628,195817
OK,53,55,816,53,2014-08-02T22:35:00,0,20941077,195817
OK,53,55,816,53,2014-08-02T22:40:00,0,20941526,195817
OK,53,55,816,53,2014-08-02T22:45:00,0,20941975,195817
OK,53,55,816,53,2014-08-02T22:50:00,0,20942424,195817
OK,53,55,816,53,2014-08-02T22:55:00,0,20942873,195817
OK,53,55,816,53,2014-08-02T23:00:00,0,20943322,195817
OK,53,55,816,53,2014-08-02T23:10:00,0,20943771,195817
OK,53,55,816,53,2014-08-02T23:15:00,0,20944220,195817
OK,53,55,816,53,2014-08-02T23:20:00,0,20944669,195817
OK,53,55,816,53,2014-08-02T23:25:00,0,20945118,195817
OK,53,55,816,53,2014-08-02T23:30:00,0,20945567,195817
OK,53,55,816,53,2014-08-02T23:35:00,0,20946016,195817
OK,53,55,816,53,2014-08-02T23:40:00,0,20946465,195817
OK,53,55,816,53,2014-08-02T23:45:00,0,20946914,195817
OK,53,55,816,53,2014-08-02T23:50:00,0,20947363,195817
OK,53,55,816,53,2014-08-02T23:55:00,0,20947812,195817
OK,53,55,816,53,2014-08-03T00:00:00,0,20948261,195817
OK,53,55,816,53,2014-08-03T00:05:00,0,20948710,195817
OK,53,55,816,53,2014-08-03T00:10:00,0,20949159,195817
OK,53,55,816,53,2014-08-03T00:15:00,0,20949607,195817
OK,53,55,816,53,2014-08-03T00:20:00,0,20950056,195817
OK,53,55,816,53,2014-08-03T00:25:00,0,20950505,195817
OK,53,55,816,53,2014-08-03T00:30:00,0,20950954,195817
OK,53,55,816,53,2014-08-03T00:35:00,0,20951403,195817
OK,53,55,816,53,2014-08-03T00:40:00,0,20951852,195817
OK,53,55,816,53,2014-08-03T00:45:00,0,20952301,195817
OK,53,55,816,53,2014-08-03T00:50:00,0,20952750,195817
OK,53,55,816,53,2014-08-03T00:55:00,0,20953199,195817